Meteo Giornale » Osservazioni meteo Italia » Ronchi Dei Legionari

ore: 22:50 - Osservazioni Meteo Ronchi Dei Legionari
Lat. 45° 49' N Lon. 13° 29' E Alt. 12 metri s.l.m.

sereno Europe/Rome

23 °C

Sereno

Temp. 24 Ore

18 °C

32 °C

Nord

1.8 Km/h

Dew point 20 °C

Umidità 83 %

Visibilità  10 Km

Il sole sorge alle ore 05:33

Il sole tramonta alle ore 20:51

Data e Ora Cielo e Fenomeni T °C DP °C Um. % Pres. hPa Vis. km Vento km/h
Oggi h: 22:50 sereno Sereno 23 20 83 1012 10 N 1.8
Oggi h: 22:20 sereno Sereno 24 21 83 1012 10 N 1.8
Oggi h: 21:50 sereno Sereno 25 22 83 1012 10 N 5.5
Oggi h: 21:20 sereno Sereno 26 22 78 1012 10 S/SE 7.4
Oggi h: 20:50 sereno Sereno 27 21 69 1012 10 S/SE 7.4
Oggi h: 20:20 sereno Sereno 27 20 65 1012 10 S/SE 7.4
Oggi h: 19:50 sereno Sereno 28 19 58 1011 10 S 7.4
Oggi h: 19:20 sereno Sereno 29 18 51 1011 10 S/SO 7.4
Oggi h: 18:20 sereno Sereno 30 17 45 1011 10 S/SO 11.1
Oggi h: 17:50 sereno Sereno 31 19 48 1012 10 SO 11.1
Oggi h: 17:20 sereno Sereno 31 18 45 1012 10 SO 14.8
Oggi h: 16:50 sereno Sereno 31 18 45 1012 10 O/SO 14.8
Oggi h: 16:20 sereno Sereno 31 14 35 1012 10 SO 16.7
Oggi h: 15:50 sereno Sereno 32 16 38 1012 10 SO 14.8
Oggi h: 15:20 sereno Sereno 32 16 38 1012 10 SO 14.8
Oggi h: 14:20 sereno Sereno 32 17 40 1012 10 O/SO 11.1
Oggi h: 13:50 sereno Sereno 31 17 43 1012 10 O 9.3
Oggi h: 13:20 sereno Sereno 31 18 45 1012 10 S/SO 9.3
Oggi h: 12:50 sereno Sereno 31 18 45 1012 10 S/SO 7.4
Oggi h: 12:20 sereno Sereno 31 18 45 1012 10 O/SO 7.4
Oggi h: 11:50 sereno Sereno 30 18 48 1012 10 N 7.4
Oggi h: 11:20 sereno Sereno 30 19 51 1012 10 N 5.5
Oggi h: 10:50 sereno Sereno 29 18 51 1013 10 N 1.8
Oggi h: 10:20 sereno Sereno 28 17 51 1012 10 N 3.7
Oggi h: 09:50 sereno Sereno 27 17 54 1013 10 N 1.8
Oggi h: 09:20 sereno Sereno 27 17 54 1013 10 N 1.8
Oggi h: 08:50 sereno Sereno 25 17 61 1013 10 N 1.8
Oggi h: 08:20 sereno Sereno 23 16 64 1013 10 N 3.7
Oggi h: 07:50 sereno Sereno 22 16 68 1013 10 N 1.8
Oggi h: 07:20 sereno Sereno 21 15 68 1013 10 N 1.8
Oggi h: 06:20 sereno Sereno 18 14 77 1013 10 N 5.5
Oggi h: 05:50 sereno Sereno 18 14 77 1013 10 N 1.8
Oggi h: 05:20 sereno Sereno 18 14 77 1013 10 N 5.5
Oggi h: 04:50 sereno Sereno 18 15 82 1013 10 N 3.7
Oggi h: 04:20 sereno Sereno 19 15 77 1013 10 N 3.7
Oggi h: 03:50 sereno Sereno 18 16 88 1013 10 N 3.7
Oggi h: 03:20 sereno Sereno 19 16 82 1013 10 N/NE 7.4
Oggi h: 02:50 sereno Sereno 19 17 88 1013 10 N 1.8
Oggi h: 02:20 sereno Sereno 19 17 88 1013 10 N 3.7
Oggi h: 01:50 sereno Sereno 19 16 82 1013 10 N 3.7
Oggi h: 01:20 sereno Sereno 20 17 82 1013 10 N 5.5
Oggi h: 00:50 sereno Sereno 21 16 73 1013 10 N 3.7
Oggi h: 00:20 sereno Sereno 21 17 77 1013 10 N 3.7
Ieri h: 23:50 sereno Sereno 22 17 73 1013 10 N 5.5